Skip Navigation Links
NOAA logo - Click to go to the NOAA homepage
NOAA's National Weather Service
Alaska Aviation Weather Unit
  NWS logo - Click to go to the NWS homepage
Left Navbar Graphic     10 AKDT = 18 GMT

   
NOAA is celebrating 200 years of science, service, and stewardship. Visit the NOAA 200th celebration Web site to learn more.
USA.gov is the U.S. Government's official Web portal to all Federal, state and local government Web resources and services.
Facebook
NWS on Facebook

Important Change Regarding the AAWU Web Presence

 

Over the last several months, the AAWU has been working to navigate its webpages to a nationally supported server. Security, as well as other needs, have necessitated the change.  We have been given an extension for the site changeover while we diligently work at addressing feedback received. As of July 14, 2017, aawu.arh.noaa.gov will be discontinued. The new AAWU web address is weather.gov/aawu. It is now live and will run in-parallel with the old site until it is discontinued on July 14, 2017. Please continue to send any feedback or questions regarding the new webpages to nws.ar.aawu.webauthors@noaa.gov.  Thank you for your patience during this time of transition.
AAWU Home :: Display TAF Add Bookmark
METAR PASO 261253Z AUTO 00000KT 10SM OVC080 04/04 A2971 RMK AO2 SLP061
     T00390039 TSNO $=

METAR PASO 261353Z AUTO 00000KT 10SM BKN080 04/04 A2970 RMK AO2 SLP058
     T00440044 TSNO $=

METAR PASO 261453Z AUTO 00000KT 10SM OVC070 05/05 A2969 RMK AO2 SLP054
     T00500050 56012 TSNO $=

METAR PASO 261553Z AUTO 00000KT 10SM OVC080 05/05 A2968 RMK AO2 SLP050
     T00500050 TSNO=

METAR PASO 261653Z AUTO 00000KT 10SM OVC085 06/06 A2967 RMK AO2 SLP047
     T00560056 TSNO=

METAR PASO 261753Z AUTO 00000KT 10SM OVC090 07/06 A2966 RMK AO2 SLP045
     T00670061 10067 20033 56009 TSNO=


NOAA's National Weather Service
Alaska Aviation Weather Unit
6930 Sand Lake Road
Anchorage, AK 99502-1845
Disclaimer
Credits
Glossary
Privacy Policy
About Us
Career Opportunities
Contact AAWU Internet Services Site last modified: April, 17th 2012